カタログに戻る

OPS 4682 DEB

運用中PO
NORAD 51493·DEBRIS·🇺🇸 United States

打ち上げ Apr 3, 1965 から Vandenberg Space Force Base

Loading…

次のパス (今後24時間)

TLE

最新Source: Space-Track

元期: Sep 11, 2026, 13:36 UTC

1 51493U 65027GD  26254.56702356  .00000263  00000-0  90219-3 0  9990
2 51493  90.2516  13.2416 0026384 317.1002  42.8060 12.95770886417826

AllMySatでOPS 4682 DEBをリアルタイム追跡

Download on the App Store